#timestamp,LO_Frequency,Hit,Temp,Hum 
1479866415.1,286047196.0,N,0.0,0.0
1479866416.0,286047196.0,N,0.0,0.0
1479866435.8,286047196.3,N,0.0,0.0
1479866455.6,286047196.4,N,0.0,0.0
1479866475.5,286047195.2,N,0.0,0.0
1479866495.3,286047195.1,N,0.0,0.0
1479866515.2,286047195.2,N,0.0,0.0
1479866535.9,286047195.1,N,0.0,0.0
1479866555.7,286047195.0,N,0.0,0.0
1479866575.6,286047197.4,N,0.0,0.0
1479866595.4,286047196.8,N,0.0,0.0
1479866615.2,286047197.3,N,0.0,0.0
1479866635.1,286047197.4,N,0.0,0.0
1479866636.0,286047197.4,N,0.0,0.0
1479866655.8,286047197.7,N,0.0,0.0
1479866675.7,286047196.9,N,0.0,0.0
1479866695.5,286047199.2,N,0.0,0.0
1479866715.3,286047199.1,N,0.0,0.0
1479866735.2,286047199.1,N,0.0,0.0
1479866755.0,286047197.7,N,0.0,0.0
1479866755.9,286047197.7,N,0.0,0.0
1479866775.8,286047197.2,N,0.0,0.0
1479866795.6,286047197.3,N,0.0,0.0
1479866815.4,286047195.4,N,0.0,0.0
1479866835.3,286047197.9,N,0.0,0.0
1479866855.1,286047197.3,N,0.0,0.0
1479866875.8,286047196.6,N,0.0,0.0
1479866895.7,286047196.5,N,0.0,0.0
1479866915.5,286047196.5,N,0.0,0.0
1479866935.4,286047199.5,N,0.0,0.0
1479866955.2,286047199.1,N,0.0,0.0
1479866975.0,286047199.4,N,0.0,0.0
1479866975.9,286047199.4,N,0.0,0.0
1479866995.8,286047198.8,N,0.0,0.0
1479867015.6,286047196.9,N,0.0,0.0
1479867035.5,286047199.5,N,0.0,0.0
1479867055.3,286047199.4,N,0.0,0.0
1479867075.1,286047198.7,N,0.0,0.0
1479867095.9,286047199.5,N,0.0,0.0
1479867115.7,286047196.5,N,0.0,0.0
1479867135.5,286047196.8,N,0.0,0.0
1479867155.4,286047196.7,N,0.0,0.0
1479867175.2,286047199.5,N,0.0,0.0
1479867195.1,286047199.0,N,0.0,0.0
1479867196.0,286047199.0,N,0.0,0.0
1479867215.8,286047199.3,N,0.0,0.0
1479867235.6,286047199.3,N,0.0,0.0
1479867255.5,286047198.9,N,0.0,0.0
1479867275.3,286047199.5,N,0.0,0.0
1479867295.1,286047197.0,N,0.0,0.0
1479867315.9,286047199.2,N,0.0,0.0
1479867335.7,286047199.3,N,0.0,0.0
1479867355.6,286047198.1,N,0.0,0.0
1479867375.4,286047200.9,N,0.0,0.0
1479867395.2,286047201.2,N,0.0,0.0
1479867415.1,286047196.8,N,0.0,0.0
1479867416.0,286047196.8,N,0.0,0.0
1479867435.8,286047199.2,N,0.0,0.0
1479867455.7,286047199.0,N,0.0,0.0
1479867475.5,286047199.5,N,0.0,0.0
1479867495.3,286047199.2,N,0.0,0.0
1479867515.2,286047199.2,N,0.0,0.0
1479867535.0,286047196.6,N,0.0,0.0
1479867535.9,286047196.6,N,0.0,0.0
1479867555.7,286047199.5,N,0.0,0.0
1479867575.6,286047199.4,N,0.0,0.0
1479867595.4,286047198.3,N,0.0,0.0
1479867615.3,286047198.5,N,0.0,0.0
1479867635.1,286047200.7,N,0.0,0.0
1479867655.8,286047200.0,N,0.0,0.0
1479867675.7,286047200.0,N,0.0,0.0
1479867695.5,286047200.0,N,0.0,0.0
1479867715.4,286047199.9,N,0.0,0.0
1479867735.2,286047200.0,N,0.0,0.0
1479867755.0,286047201.0,N,0.0,0.0
1479867755.9,286047201.0,N,0.0,0.0
1479867775.8,286047200.5,N,0.0,0.0
1479867795.6,286047200.8,N,0.0,0.0
1479867815.4,286047200.6,N,0.0,0.0
1479867835.3,286047200.0,N,0.0,0.0
1479867855.1,286047200.2,N,0.0,0.0
1479867875.9,286047202.2,N,0.0,0.0
1479867895.7,286047202.3,N,0.0,0.0
1479867915.5,286047202.8,N,0.0,0.0
1479867935.4,286047202.7,N,0.0,0.0
1479867955.2,286047200.1,N,0.0,0.0
1479867975.0,286047199.9,N,0.0,0.0
1479867976.0,286047199.9,N,0.0,0.0
1479867995.8,286047199.8,N,0.0,0.0
1479868015.6,286047200.0,N,0.0,0.0
1479868035.5,286047200.9,N,0.0,0.0
1479868055.3,286047200.0,N,0.0,0.0
1479868075.1,286047202.2,N,0.0,0.0
1479868095.9,286047201.8,N,0.0,0.0
1479868115.7,286047201.6,N,0.0,0.0
1479868135.6,286047202.0,N,0.0,0.0
1479868155.4,286047202.5,N,0.0,0.0
1479868175.2,286047202.3,N,0.0,0.0
1479868195.1,286047202.5,N,0.0,0.0
1479868196.0,286047202.5,N,0.0,0.0
1479868215.8,286047202.5,N,0.0,0.0
1479868235.7,286047202.2,N,0.0,0.0
1479868255.5,286047202.1,N,0.0,0.0
1479868275.3,286047201.5,N,0.0,0.0
1479868295.2,286047202.2,N,0.0,0.0
1479868315.9,286047201.6,N,0.0,0.0
1479868335.7,286047202.2,N,0.0,0.0
1479868355.6,286047202.5,N,0.0,0.0
1479868375.4,286047201.6,N,0.0,0.0
1479868395.2,286047204.0,N,0.0,0.0
1479868415.1,286047203.9,N,0.0,0.0
1479868416.0,286047203.9,N,0.0,0.0
1479868435.8,286047204.1,N,0.0,0.0
1479868455.7,286047203.6,N,0.0,0.0
1479868475.5,286047204.2,N,0.0,0.0
1479868495.3,286047204.1,N,0.0,0.0
1479868515.2,286047204.3,N,0.0,0.0
1479868535.0,286047201.8,N,0.0,0.0
1479868535.9,286047201.8,N,0.0,0.0
1479868555.8,286047201.3,N,0.0,0.0
1479868575.6,286047203.8,N,0.0,0.0
1479868595.4,286047203.2,N,0.0,0.0
1479868615.3,286047204.0,N,0.0,0.0
1479868635.1,286047204.1,N,0.0,0.0
1479868655.8,286047204.2,N,0.0,0.0
1479868675.7,286047203.9,N,0.0,0.0
1479868695.5,286047203.9,N,0.0,0.0
1479868715.4,286047203.6,N,0.0,0.0
1479868735.2,286047203.4,N,0.0,0.0
1479868755.0,286047203.0,N,0.0,0.0
1479868755.9,286047203.0,N,0.0,0.0
1479868775.8,286047203.0,N,0.0,0.0
1479868795.6,286047202.9,N,0.0,0.0
1479868815.4,286047205.9,N,0.0,0.0
1479868835.3,286047205.5,N,0.0,0.0
1479868855.1,286047203.3,N,0.0,0.0
1479868875.9,286047204.1,N,0.0,0.0
1479868895.7,286047201.3,N,0.0,0.0
1479868915.5,286047203.8,N,0.0,0.0
1479868935.4,286047203.0,N,0.0,0.0
1479868955.2,286047205.9,N,0.0,0.0
1479868975.0,286047205.7,N,0.0,0.0
1479868976.0,286047205.7,N,0.0,0.0
1479868995.8,286047205.9,N,0.0,0.0
1479869015.6,286047203.0,N,0.0,0.0
1479869035.5,286047203.0,N,0.0,0.0
1479869055.3,286047205.5,N,0.0,0.0
1479869075.1,286047205.3,N,0.0,0.0
1479869095.9,286047204.6,N,0.0,0.0
1479869115.7,286047204.6,N,0.0,0.0
1479869135.6,286047205.7,N,0.0,0.0
1479869155.4,286047205.4,N,0.0,0.0
1479869175.2,286047204.5,N,0.0,0.0
1479869195.1,286047207.3,N,0.0,0.0
1479869196.0,286047207.3,N,0.0,0.0
1479869215.8,286047205.1,N,0.0,0.0
1479869235.7,286047204.9,N,0.0,0.0
1479869255.5,286047207.3,N,0.0,0.0
1479869275.3,286047206.9,N,0.0,0.0
1479869295.2,286047207.2,N,0.0,0.0
1479869315.9,286047206.9,N,0.0,0.0
1479869335.7,286047207.0,N,0.0,0.0
1479869355.6,286047206.2,N,0.0,0.0
1479869375.4,286047206.6,N,0.0,0.0
1479869395.3,286047206.4,N,0.0,0.0
1479869415.1,286047207.3,N,0.0,0.0
1479869416.0,286047207.3,N,0.0,0.0
1479869435.8,286047207.0,N,0.0,0.0
1479869455.7,286047207.3,N,0.0,0.0
1479869475.5,286047207.0,N,0.0,0.0
1479869495.4,286047205.0,N,0.0,0.0
1479869515.2,286047205.6,N,0.0,0.0
1479869535.0,286047205.9,N,0.0,0.0
1479869535.9,286047205.9,N,0.0,0.0
1479869555.8,286047205.4,N,0.0,0.0
1479869575.6,286047205.5,N,0.0,0.0
1479869595.4,286047203.0,N,0.0,0.0
1479869615.3,286047205.3,N,0.0,0.0
1479869635.1,286047205.2,N,0.0,0.0
1479869655.9,286047205.4,N,0.0,0.0
1479869675.7,286047205.4,N,0.0,0.0
1479869695.5,286047205.4,N,0.0,0.0
1479869715.4,286047205.9,N,0.0,0.0
1479869735.2,286047205.6,N,0.0,0.0
1479869755.0,286047205.7,N,0.0,0.0
1479869755.9,286047205.7,N,0.0,0.0
1479869775.8,286047205.7,N,0.0,0.0
1479869795.6,286047205.3,N,0.0,0.0
1479869815.5,286047204.9,N,0.0,0.0
1479869835.3,286047206.7,N,0.0,0.0
1479869855.1,286047206.7,N,0.0,0.0
1479869875.9,286047206.7,N,0.0,0.0
1479869895.7,286047206.1,N,0.0,0.0
1479869915.6,286047206.2,N,0.0,0.0
1479869935.4,286047206.8,N,0.0,0.0
1479869955.2,286047206.7,N,0.0,0.0
1479869975.1,286047207.1,N,0.0,0.0
1479869976.0,286047207.1,N,0.0,0.0
1479869995.8,286047207.3,N,0.0,0.0
